Flag for U.S.A. Weather past 2 weeks in Victorville, California, U.S.A.

Now
57 °F

Clear.


Feels Like: 55 °F
Forecast: 51 / 79 °F
Wind: 9 mph from South

Location: George Air Force Base / Victorvi

Current Time: May 25, 2015 at 1:16:01 AM

Latest Report: May 25, 2015 at 12:55 AM


Visibility: 10 mi

Pressure: 29.94 "Hg

Humidity: 67%

Dew point: 46 °F

Location of VictorvilleLocation

Historic Weather in Victorville — Graph

°F

Victorville temperature yesterday

Maximum temperature yesterday: 81 °F (at 3:55 PM)
Minimum temperature yesterday: 54 °F (at 12:15 AM)
Average temperature yesterday: 65 °F

Past Weeks' High & Low Weather Summary

 TemperatureHumidityPressure
High82 °F (May 11, 1:15 PM)87% (May 15, 3:35 AM)30.06 "Hg (May 15, 3:35 AM)
Low39 °F (May 15, 3:35 AM)9% (May 10, 6:15 PM)29.80 "Hg (May 12, 4:35 PM)
Average60 °F47%29.93 "Hg
* Reported May 10 12:15 AM — May 25 12:15 AM, Victorville, Weather by CustomWeather, © 2015

Note: Actual official high and low records may vary slightly from our data, if they occured in-between our weather recording intervals... More about our weather records

Advertising

Victorville weather history for previous 24 hours

 ConditionsComfort  
Time TempWeatherWind HumidityBarometerVisibility
12:15 AM
Mon, May 25
57 °FClear.10 mph67%29.95 "Hg10 mi
11:55 PM
Sun, May 24
57 °FClear.9 mph67%29.95 "Hg10 mi
11:35 PM59 °FClear.9 mph63%29.95 "Hg10 mi
11:15 PM57 °FClear.7 mph67%29.96 "Hg10 mi
10:55 PM59 °FClear.9 mph63%29.95 "Hg10 mi
10:15 PM61 °FClear.10 mph59%29.95 "Hg10 mi
9:55 PM64 °FClear.7 mph46%29.95 "Hg10 mi
9:35 PM64 °FClear.13 mph43%29.95 "Hg10 mi
9:15 PM64 °FClear.15 mph49%29.93 "Hg10 mi
8:55 PM66 °FClear.17 mph46%29.92 "Hg10 mi
8:15 PM66 °FSunny.17 mph46%29.91 "Hg10 mi
7:55 PM68 °FSunny.18 mph43%29.91 "Hg10 mi
7:35 PM70 °FSunny.21 mph40%29.91 "Hg10 mi
7:15 PM72 °FSunny.22 mph38%29.90 "Hg10 mi
6:55 PM73 °FSunny.16 mph33%29.90 "Hg10 mi
6:15 PM77 °FSunny.20 mph30%29.89 "Hg10 mi
5:55 PM79 °FScattered clouds.15 mph28%29.88 "Hg10 mi
5:35 PM79 °FPartly sunny.17 mph28%29.88 "Hg10 mi
5:15 PM79 °FOvercast.14 mph26%29.88 "Hg10 mi
4:55 PM79 °FPartly sunny.6 mph21%29.88 "Hg10 mi
4:35 PM81 °FScattered clouds.6 mph20%29.88 "Hg10 mi
4:15 PM79 °FScattered clouds.5 mph23%29.89 "Hg10 mi
3:55 PM81 °FSunny.6 mph21%29.89 "Hg10 mi
3:35 PM79 °FSunny.No wind21%29.90 "Hg10 mi
3:15 PM79 °FSunny.5 mph21%29.90 "Hg10 mi
2:15 PM79 °FSunny.3 mph23%29.92 "Hg10 mi
1:55 PM75 °FSunny.5 mph27%29.93 "Hg10 mi
1:35 PM75 °FSunny.No wind27%29.94 "Hg10 mi
1:15 PM75 °FSunny.7 mph27%29.95 "Hg10 mi
12:55 PM73 °FSunny.No wind29%29.96 "Hg10 mi
12:35 PM73 °FSunny.5 mph29%29.97 "Hg10 mi
12:15 PM72 °FSunny.7 mph31%29.97 "Hg10 mi
11:55 AM73 °FSunny.8 mph31%29.98 "Hg10 mi
11:15 AM70 °FSunny.No wind35%29.99 "Hg10 mi
10:55 AM68 °FSunny.No wind38%29.99 "Hg10 mi
10:35 AM66 °FSunny.No wind40%30.00 "Hg10 mi
10:15 AM66 °FSunny.No wind40%30.00 "Hg10 mi
9:55 AM66 °FSunny.3 mph40%30.00 "Hg10 mi
9:15 AM64 °FSunny.12 mph46%30.00 "Hg10 mi
8:55 AM63 °FScattered clouds.10 mph49%30.01 "Hg10 mi
8:35 AM61 °FBroken clouds.13 mph52%30.00 "Hg10 mi
8:15 AM61 °FMore clouds than sun.10 mph55%30.00 "Hg10 mi
7:55 AM59 °FMostly cloudy.12 mph59%30.00 "Hg10 mi
7:35 AM57 °FMostly cloudy.10 mph59%30.00 "Hg10 mi
7:15 AM57 °FMostly cloudy.12 mph59%30.00 "Hg10 mi
6:55 AM55 °FOvercast.10 mph63%29.99 "Hg10 mi
6:35 AM55 °FOvercast.10 mph63%29.98 "Hg10 mi
6:15 AM55 °FMostly cloudy.12 mph63%29.98 "Hg10 mi
5:55 AM55 °FMostly cloudy.10 mph63%29.97 "Hg10 mi
5:35 AM55 °FMostly cloudy.8 mph63%29.96 "Hg10 mi
5:15 AM55 °FPassing clouds.10 mph63%29.96 "Hg10 mi
4:55 AM54 °FPassing clouds.10 mph63%29.96 "Hg10 mi
4:35 AM55 °FPartly cloudy.13 mph63%29.96 "Hg10 mi
4:15 AM55 °FOvercast.10 mph63%29.96 "Hg10 mi
3:55 AM55 °FMostly cloudy.14 mph63%29.96 "Hg10 mi
3:35 AM55 °FOvercast.12 mph63%29.96 "Hg10 mi
3:15 AM55 °FPartly cloudy.17 mph63%29.96 "Hg10 mi
2:55 AM55 °FPassing clouds.18 mph63%29.96 "Hg10 mi
2:35 AM55 °FPartly cloudy.16 mph63%29.96 "Hg10 mi
2:15 AM55 °FPartly cloudy.15 mph63%29.96 "Hg10 mi
1:55 AM55 °FPassing clouds.8 mph63%29.97 "Hg10 mi
1:35 AM54 °FClear.No wind72%29.97 "Hg10 mi
1:15 AM54 °FClear.8 mph72%29.97 "Hg10 mi
Weather by CustomWeather, © 2015

See weather overviewHow to use our weather pages